Weather Service Report


369 
ASUS44 KJAN 011720
RWRMS 

MISSISSIPPI HOURLY WEATHER ROUNDUP
NATIONAL WEATHER SERVICE JACKSON MS
1200 PM CDT SAT OCT 01 2016

NOTE: "FAIR: INDICATES FEW OR NO CLOUDS BELOW 12,000 FEET WITH NO
SIGNIFICANT WEATHER AND/OR OBSTRUCTIONS TO VISIBILITY.

MSZ001>002-007>008-010>013-018>021-025>028-034>036-011800-
NORTHWEST MISSISSIPPI
  
CITY           SKY/WX    TMP DP  RH WIND       PRES   REMARKS
BATESVILLE     FAIR      76  53  44 CALM      30.11F                  
CLARKSDALE     MOSUNNY   77  55  47 CALM      30.10F                  
CLEVELAND      FAIR      78  55  44 SW5       30.09F                  
GREENWOOD      SUNNY     78  54  43 N7        30.11F                  
GREENVILLE     SUNNY     78  54  43 W7        30.10F                  
OLIVE BRANCH   PTSUNNY  N/A N/A N/A W7        30.10S                  
OXFORD         FAIR      73  54  49 W9        30.12F                  
TUNICA         MOSUNNY   73  54  49 CALM      30.10F                  
WINONA         FAIR      75  55  48 SW7       30.11F                  
$$

MSZ003>006-009-014>017-022>024-029>033-037>039-011800-
NORTHEAST MISSISSIPPI
  
CITY           SKY/WX    TMP DP  RH WIND       PRES   REMARKS
COLUMBUS AFB   MOSUNNY   77  54  43 NW6       30.10F                  
CORINTH        CLOUDY    73  54  49 CALM      30.09S                  
GOLDN TRIANGLE MOSUNNY   79  52  38 W9        30.11F                  
STARKVILLE     FAIR      77  52  41 N3        30.11F                  
TUPELO         SUNNY     76  52  43 VRB6      30.10F                  
$$

MSZ040-058-011800-
CENTRAL MISSISSIPPI
  
CITY           SKY/WX    TMP DP  RH WIND       PRES   REMARKS
JACKSON INTL   PTSUNNY   79  55  43 CALM      30.11F                  
JACKSON HAWKNS MOSUNNY   78  53  41 W7        30.11F                  
MADISON        FAIR      77  54  44 NW5       30.10F                  
MERIDIAN KEY   MOSUNNY   82  53  36 CALM      30.09F                  
MERIDIAN NAS   MOSUNNY   81  52  36 MISG      30.10F                  
VICKSBURG VKS  SUNNY     79  55  44 N5        30.10F                  
$$

MSZ059>079-011800-
SOUTH MISSISSIPPI
  
CITY           SKY/WX    TMP DP  RH WIND       PRES   REMARKS
BROOKHAVEN     FAIR     N/A N/A N/A CALM      30.12F                  
COLUMBIA       FAIR      79  55  44 VRB5      30.13F                  
HATTIESBURG    MOSUNNY   81  55  40 MISG      30.11F                  
LAUREL         FAIR      77  53  43 NW3       30.11                   
MCCOMB         PTSUNNY   79  51  37 CALM      30.11F                  
NATCHEZ        MOSUNNY   77  54  44 CALM      30.11F                  
PINE BELT      SUNNY     81  54  39 NW5       30.10F                  
$$

MSZ080>082-011800-
COASTAL MISSISSIPPI
  
CITY           SKY/WX    TMP DP  RH WIND       PRES   REMARKS
BILOXI         SUNNY     81  57  43 E6        30.08F                  
PASCAGOULA     SUNNY     80  56  43 CALM      30.08F                  
GULFPORT       SUNNY     82  55  39 NW9       30.08F                  
$$

LAZ007>009-015>016-023>026-011800-
NORTHEAST LOUISIANA
  
CITY           SKY/WX    TMP DP  RH WIND       PRES   REMARKS
BASTROP        FAIR      78  54  43 CALM      30.12F                  
TALLULAH/VBURG SUNNY     80  53  39 CALM      30.11F                  
$$
  

Return to Home page


Western Regional Climate Center, wrcc@dri.edu